This is the latest recevied weather packets stored in our database for station/object VA5EVR-13. If no packets are shown the sender has not sent any weather packets the latest 10 day(s).
| Time | Temp. | Humidity | Pressure | Rain* | Wind** | Luminosity | Snow |
|---|---|---|---|---|---|---|---|
| 1777567212 | 11.11° C | 39% | 88.8 hPa | 0 mm | - | - | - |
| 1777566613 | 10.56° C | 40% | 88.8 hPa | 0 mm | - | - | - |
| 1777566012 | 10.56° C | 41% | 88.8 hPa | 0 mm | - | - | - |
| 1777565411 | 10.56° C | 40% | 88.8 hPa | 0 mm | - | - | - |
| 1777564812 | 11.11° C | 41% | 88.8 hPa | 0 mm | - | - | - |
| 1777564212 | 11.11° C | 42% | 88.8 hPa | 0 mm | - | - | - |
| 1777563612 | 11.11° C | 41% | 88.8 hPa | 0 mm | - | - | - |
| 1777563012 | 11.67° C | 42% | 88.8 hPa | 0 mm | - | - | - |
| 1777562413 | 12.22° C | 47% | 88.8 hPa | 0 mm | - | - | - |
| 1777561812 | 12.22° C | 50% | 88.8 hPa | 0 mm | - | - | - |
| 1777561212 | 11.67° C | 50% | 88.8 hPa | 0 mm | - | - | - |
| 1777560612 | 11.11° C | 51% | 88.8 hPa | 0 mm | - | - | - |
| 1777560012 | 10.56° C | 55% | 88.8 hPa | 0 mm | - | - | - |
| 1777559412 | 10° C | 56% | 88.8 hPa | 0 mm | - | - | - |
| 1777558812 | 8.89° C | 60% | 88.8 hPa | 0 mm | - | - | - |
| 1777558212 | 8.33° C | 62% | 88.8 hPa | 0 mm | - | - | - |
| 1777557611 | 7.78° C | 63% | 88.8 hPa | 0 mm | - | - | - |
| 1777557011 | 6.67° C | 63% | 88.8 hPa | 0 mm | - | - | - |
| 1777556412 | 6.11° C | 65% | 88.8 hPa | 0 mm | - | - | - |
| 1777555812 | 5° C | 66% | 88.8 hPa | 0 mm | - | - | - |
| 1777555212 | 3.33° C | 68% | 88.8 hPa | 0 mm | - | - | - |
| 1777554611 | 2.22° C | 69% | 88.8 hPa | 0 mm | - | - | - |
| 1777554012 | 1.11° C | 71% | 88.8 hPa | 0 mm | - | - | - |
| 1777553412 | 0.56° C | 72% | 88.8 hPa | 0 mm | - | - | - |
| 1777552811 | 0.56° C | 72% | 88.8 hPa | 0 mm | - | - | - |
* Rain latest hour (hover to see other rain measurements)
** Current wind speed in m/s (hover to see current wind gust speed)